Ahoskie, NC

6:02 PM EST on December 16, 2017 (GMT -0500)
Tri County

Weather History for KASJ - November, 2013

Change the Weather History Date:

Monday, November 25, 2013

  Actual Average (KEMV) Record (KEMV)
Temperature  
Mean Temperature 28 °F -  
Max Temperature 40 °F 60 °F 72 °F (1987)
Min Temperature 17 °F 33 °F 17 °F (2013)
Degree Days  
Heating Degree Days 37    
Moisture  
Dew Point 11 °F    
Average Humidity 50    
Maximum Humidity 80    
Minimum Humidity 23    
Precipitation  
Precipitation 0.00 in - - ()
Sea Level Pressure  
Sea Level Pressure 30.53 in    
Wind  
Wind Speed 1 mph (ENE)    
Max Wind Speed 6 mph    
Max Gust Speed -    
Visibility 10 miles    
Events      
Averages and records for this station are not official NWS values.
T = Trace of Precipitation, MM = Missing Value Source: NWS Daily Summary

Daily Weather History Graph

Daily Weather History Graph

Search for Another Location

Airport or City:

Trip Planner

Search our weather history database for the weather conditions in past years. The results will help you decide how hot, cold, wet, or windy it might be!

Date:

Astronomy

Nov. 25, 2013 Rise Set
Actual Time 6:56 AM EST 4:55 PM EST
Civil Twilight 6:28 AM EST 5:23 PM EST
Nautical Twilight 5:56 AM EST 5:54 PM EST
Astronomical Twilight 5:25 AM EST 6:25 PM EST
Moon No Moon Rise 12:18 PM EST (11/25)
Length of Visible Light 10h 55m
Length of Day
9h 59m
Waning Gibbous, 51% of the Moon is Illuminated
Nov 25
Waning Gibbous
Nov 25
Last Quarter
Dec 2
New
Dec 9
First Quarter
Dec 17
Full

Hourly Weather History & Observations

Time (EST) Temp. Windchill Dew Point Humidity Pressure Visibility Wind Dir Wind Speed Gust Speed Precip Events Conditions
12:15 AM 25.2 °F 20.9 °F 6.3 °F 45% 30.55 in 10.0 mi North 3.5 mph - N/A   Clear
12:35 AM 24.4 °F - 7.5 °F 49% 30.55 in 10.0 mi Calm Calm - N/A   Clear
12:55 AM 24.8 °F - 6.6 °F 46% 30.55 in 10.0 mi Calm Calm - N/A   Clear
1:15 AM 24.8 °F - 6.1 °F 45% 30.55 in 10.0 mi Calm Calm - N/A   Clear
1:35 AM 24.1 °F - 7.2 °F 49% 30.55 in 10.0 mi Calm Calm - N/A   Clear
2:15 AM 22.5 °F - 8.6 °F 55% 30.55 in 10.0 mi Calm Calm - N/A   Clear
2:35 AM 21.2 °F - 10.8 °F 64% 30.56 in 10.0 mi Calm Calm - N/A   Clear
2:55 AM 21.0 °F - 10.6 °F 64% 30.56 in 10.0 mi Calm Calm - N/A   Clear
3:15 AM 20.7 °F - 10.4 °F 65% 30.55 in 10.0 mi Calm Calm - N/A   Clear
3:35 AM 20.8 °F - 11.7 °F 68% 30.56 in 10.0 mi Calm Calm - N/A   Clear
3:55 AM 20.3 °F - 10.6 °F 66% 30.55 in 10.0 mi Calm Calm - N/A   Clear
4:15 AM 20.5 °F - 10.6 °F 66% 30.56 in 10.0 mi Calm Calm - N/A   Clear
4:35 AM 20.3 °F - 10.8 °F 67% 30.57 in 10.0 mi Calm Calm - N/A   Clear
4:55 AM 20.3 °F - 9.9 °F 64% 30.58 in 10.0 mi Calm Calm - N/A   Clear
5:15 AM 18.3 °F - 10.9 °F 73% 30.58 in 10.0 mi Calm Calm - N/A   Clear
5:35 AM 19.4 °F - 10.9 °F 70% 30.58 in 10.0 mi Calm Calm - N/A   Clear
5:55 AM 18.0 °F - 11.1 °F 75% 30.58 in 10.0 mi Calm Calm - N/A   Clear
6:15 AM 18.3 °F - 10.9 °F 73% 30.59 in 10.0 mi Calm Calm - N/A   Clear
6:35 AM 17.6 °F - 11.1 °F 76% 30.59 in 10.0 mi Calm Calm - N/A   Clear
6:55 AM 17.2 °F - 11.3 °F 78% 30.60 in 10.0 mi Calm Calm - N/A   Clear
7:15 AM 17.2 °F - 12.0 °F 80% 30.60 in 10.0 mi Calm Calm - N/A   Clear
7:35 AM 18.7 °F - 13.1 °F 79% 30.61 in 10.0 mi Calm Calm - N/A   Clear
7:55 AM 20.5 °F - 15.3 °F 80% 30.61 in 10.0 mi Calm Calm - N/A   Clear
8:15 AM 23.0 °F - 14.9 °F 71% 30.61 in 10.0 mi Calm Calm - N/A   Clear
8:35 AM 25.2 °F - 12.9 °F 60% 30.61 in 10.0 mi Calm Calm - N/A   Clear
8:55 AM 27.7 °F - 11.8 °F 51% 30.61 in 10.0 mi Calm Calm - N/A   Clear
9:15 AM 29.1 °F 23.0 °F 9.9 °F 45% 30.62 in 10.0 mi North 5.8 mph - N/A   Clear
9:35 AM 30.0 °F 24.1 °F 9.0 °F 41% 30.62 in 10.0 mi North 5.8 mph - N/A   Clear
9:55 AM 31.5 °F 25.8 °F 7.9 °F 37% 30.61 in 10.0 mi NE 5.8 mph - N/A   Clear
10:15 AM 32.0 °F 26.4 °F 7.7 °F 36% 30.61 in 10.0 mi NNE 5.8 mph - N/A   Clear
10:35 AM 32.2 °F 27.7 °F 6.8 °F 34% 30.60 in 10.0 mi East 4.6 mph - N/A   Clear
10:55 AM 33.4 °F - 6.1 °F 32% 30.60 in 10.0 mi Calm Calm - N/A   Clear
11:15 AM 33.4 °F - 5.9 °F 31% 30.59 in 10.0 mi Calm Calm - N/A   Clear
11:35 AM 35.1 °F - 6.8 °F 31% 30.58 in 10.0 mi Calm Calm - N/A   Clear
11:55 AM 34.9 °F - 5.7 °F 30% 30.58 in 10.0 mi Calm Calm - N/A   Clear
12:15 PM 36.5 °F - 6.8 °F 29% 30.57 in 10.0 mi Calm Calm - N/A   Clear
12:35 PM 37.6 °F - 7.5 °F 29% 30.55 in 10.0 mi Calm Calm - N/A   Clear
12:55 PM 37.4 °F - 6.3 °F 27% 30.54 in 10.0 mi Calm Calm - N/A   Clear
1:15 PM 38.1 °F - 5.9 °F 26% 30.53 in 10.0 mi Calm Calm - N/A   Clear
1:35 PM 37.9 °F - 3.4 °F 24% 30.53 in 10.0 mi Calm Calm - N/A   Clear
1:55 PM 39.2 °F - 5.0 °F 24% 30.51 in 10.0 mi Calm Calm - N/A   Clear
2:15 PM 39.2 °F - 4.3 °F 23% 30.50 in 10.0 mi Calm Calm - N/A   Clear
2:35 PM 39.4 °F 37.2 °F 5.9 °F 25% 30.49 in 10.0 mi South 3.5 mph - N/A   Clear
2:55 PM 39.9 °F - 6.8 °F 25% 30.49 in 10.0 mi Calm Calm - N/A   Clear
3:15 PM 39.7 °F 36.5 °F 5.7 °F 24% 30.50 in 10.0 mi South 4.6 mph - N/A   Clear
3:35 PM 39.7 °F 37.6 °F 5.5 °F 24% 30.50 in 10.0 mi South 3.5 mph - N/A   Clear
3:55 PM 39.2 °F - 5.9 °F 25% 30.50 in 10.0 mi Calm Calm - N/A   Clear
4:15 PM 38.3 °F - 6.8 °F 27% 30.49 in 10.0 mi Calm Calm - N/A   Clear
4:35 PM 37.2 °F - 5.5 °F 27% 30.49 in 10.0 mi Calm Calm - N/A   Clear
4:55 PM 35.2 °F - 7.9 °F 32% 30.49 in 10.0 mi Calm Calm - N/A   Clear
5:15 PM 33.6 °F - 8.2 °F 35% 30.48 in 10.0 mi Calm Calm - N/A   Clear
5:35 PM 32.5 °F - 11.7 °F 42% 30.49 in 10.0 mi Calm Calm - N/A   Clear
5:55 PM 31.8 °F - 11.8 °F 44% 30.48 in 10.0 mi Calm Calm - N/A   Clear
6:15 PM 30.0 °F - 14.2 °F 52% 30.48 in 10.0 mi Calm Calm - N/A   Clear
6:35 PM 30.4 °F - 14.2 °F 51% 30.49 in 10.0 mi Calm Calm - N/A   Clear
6:55 PM 28.2 °F - 15.4 °F 59% 30.48 in 10.0 mi Calm Calm - N/A   Clear
7:15 PM 28.2 °F - 13.5 °F 54% 30.48 in 10.0 mi Calm Calm - N/A   Clear
7:35 PM 29.1 °F - 14.0 °F 53% 30.48 in 10.0 mi Calm Calm - N/A   Clear
7:55 PM 29.3 °F - 15.8 °F 57% 30.48 in 10.0 mi Calm Calm - N/A   Clear
8:15 PM 28.4 °F - 16.7 °F 62% 30.46 in 10.0 mi Calm Calm - N/A   Clear
8:35 PM 30.2 °F - 13.6 °F 50% 30.46 in 10.0 mi Calm Calm - N/A   Clear
8:55 PM 29.1 °F - 16.2 °F 58% 30.46 in 10.0 mi Calm Calm - N/A   Clear
9:15 PM 28.9 °F - 15.8 °F 58% 30.45 in 10.0 mi Calm Calm - N/A   Clear
9:35 PM 29.7 °F - 17.4 °F 60% 30.44 in 10.0 mi Calm Calm - N/A   Clear
9:55 PM 30.2 °F - 17.1 °F 58% 30.43 in 10.0 mi Calm Calm - N/A   Clear
10:15 PM 30.6 °F - 16.9 °F 57% 30.43 in 10.0 mi Calm Calm - N/A   Clear
10:35 PM 31.1 °F - 16.3 °F 54% 30.43 in 10.0 mi Calm Calm - N/A   Clear
10:55 PM 30.2 °F - 19.0 °F 63% 30.42 in 10.0 mi Calm Calm - N/A   Clear
11:15 PM 29.8 °F - 19.8 °F 66% 30.41 in 10.0 mi Calm Calm - N/A   Clear
11:35 PM 31.1 °F - 18.5 °F 60% 30.40 in 10.0 mi Calm Calm - N/A   Clear
11:55 PM 31.5 °F - 19.2 °F 61% 30.42 in 10.0 mi Calm Calm - N/A   Clear